This is the latest recevied weather packets stored in our database for station/object KO4T-4. If no packets are shown the sender has not sent any weather packets the latest 10 day(s).
| Time | Temp. | Humidity | Pressure | Rain* | Wind** | Luminosity | Snow |
|---|---|---|---|---|---|---|---|
| 1778262606 | 20.56° C | 47% | 1015.6 hPa | 0 mm | - | - | - |
| 1778262306 | 20.56° C | 44% | 1015.7 hPa | 0 mm | - | - | - |
| 1778262006 | 20.56° C | 47% | 1015.8 hPa | 0 mm | - | - | - |
| 1778261706 | 20.56° C | 46% | 1015.8 hPa | 0 mm | - | - | - |
| 1778261406 | 20° C | 46% | 1015.9 hPa | 0 mm | - | - | - |
| 1778261106 | 20° C | 46% | 1016 hPa | 0 mm | - | - | - |
| 1778260805 | 20.56° C | 45% | 1016 hPa | 0 mm | - | - | - |
| 1778260507 | 20° C | 49% | 1016.1 hPa | 0 mm | - | - | - |
| 1778260206 | 20° C | 49% | 1016.3 hPa | 0 mm | - | - | - |
| 1778259905 | 20° C | 47% | 1016.3 hPa | 0 mm | - | - | - |
| 1778259606 | 20° C | 46% | 1016.4 hPa | 0 mm | - | - | - |
| 1778259306 | 20° C | 47% | 1016.5 hPa | 0 mm | - | - | - |
| 1778259006 | 19.44° C | 47% | 1016.6 hPa | 0 mm | - | - | - |
| 1778258706 | 18.89° C | 48% | 1016.5 hPa | 0 mm | - | - | - |
| 1778258405 | 18.89° C | 45% | 1016.6 hPa | 0 mm | - | - | - |
| 1778258106 | 19.44° C | 45% | 1016.7 hPa | 0 mm | - | - | - |
| 1778257805 | 18.89° C | 46% | 1016.8 hPa | 0 mm | - | - | - |
| 1778257506 | 20° C | 45% | 1016.8 hPa | 0 mm | - | - | - |
| 1778257206 | 20° C | 43% | 1016.9 hPa | 0 mm | - | - | - |
| 1778256906 | 19.44° C | 44% | 1016.9 hPa | 0 mm | - | - | - |
| 1778256606 | 18.89° C | 45% | 1017.1 hPa | 0 mm | - | - | - |
| 1778256306 | 18.89° C | 47% | 1017.2 hPa | 0 mm | - | - | - |
| 1778256005 | 18.89° C | 47% | 1017.3 hPa | 0 mm | - | - | - |
| 1778255706 | 18.89° C | 50% | 1017.4 hPa | 0 mm | - | - | - |
| 1778255406 | 18.89° C | 51% | 1017.5 hPa | 0 mm | - | - | - |
* Rain latest hour (hover to see other rain measurements)
** Current wind speed in m/s (hover to see current wind gust speed)